Weather History for 68032 - November, 2012

Change the Weather History Date:

Wednesday, November 7, 2012

  Actual Average Record
Temperature  
Mean Temperature 86 °F -  
Max Temperature 102 °F 91 °F - ()
Min Temperature 69 °F 69 °F - ()
Cooling Degree Days 20    
Growing Degree Days 36 (Base 50)    
Moisture  
Dew Point 54 °F    
Average Humidity 28    
Maximum Humidity 50    
Minimum Humidity 14    
Precipitation  
Precipitation 0.00 in - - ()
Sea Level Pressure  
Sea Level Pressure 29.94 in    
Wind  
Wind Speed 6 mph ()    
Max Wind Speed 14 mph    
Max Gust Speed -    
Visibility 6.1 miles    
Events      
T = Trace of Precipitation, MM = Missing Value Source: Averaged Metar Reports

Daily Weather History Graph

Daily Weather History Graph

Search for Another Location

Airport or City:

Trip Planner

Search our weather history database for the weather conditions in past years. The results will help you decide how hot, cold, wet, or windy it might be!

Date:

Astronomy

Nov. 07, 2012 Rise Set
Actual Time 5:41 AM CAT 6:38 PM CAT
Civil Twilight 5:18 AM CAT 7:01 PM CAT
Nautical Twilight 4:51 AM CAT 7:29 PM CAT
Astronomical Twilight 4:23 AM CAT 7:57 PM CAT
Moon 12:37 AM CAT (11/7) 12:26 PM CAT (11/7)
Length of Visible Light 13h 43m
Length of Day
12h 56m
Last Quarter, 46% of the Moon is Illuminated
Nov 7
Last Quarter
Nov 14
New
Nov 20
First Quarter
Nov 28
Full
Dec 6
Last Quarter

Hourly Weather History & Observations

Time (CAT) Temp. Heat Index Dew Point Humidity Pressure Visibility Wind Dir Wind Speed Gust Speed Precip Events Conditions
12:00 AM 78.8 °F - 46.4 °F 32% 29.98 in - North 3.5 mph - N/A   Clear
1:00 AM 77.0 °F - 44.6 °F 32% 29.95 in - North 3.5 mph - N/A   Clear
5:00 AM 75.2 °F - 51.8 °F 44% 29.95 in - North 3.5 mph - N/A   Clear
6:00 AM 73.4 °F - 53.6 °F 50% 29.95 in - North 3.5 mph - N/A   Clear
7:00 AM 77.0 °F - 53.6 °F 44% 29.98 in - NNW 6.9 mph - N/A   Clear
8:00 AM 85 °F - 57 °F 28%  in 6 mi NW 9.2 mph - -   Scattered Clouds
8:00 AM 86.0 °F 84.9 °F 57.2 °F 37% 30.01 in - NW 9.2 mph - N/A   Clear
9:00 AM 91.4 °F 89.9 °F 57.2 °F 31% 30.01 in - WNW 9.2 mph - N/A   Clear
10:00 AM 93.2 °F 91.3 °F 55.4 °F 28% 30.01 in - WNW 13.8 mph - N/A   Clear
11:00 AM 96.8 °F 95.8 °F 57.2 °F 27% 29.98 in - WNW 9.2 mph - N/A   Clear
12:00 PM 98.6 °F 97.2 °F 55.4 °F 24% 29.98 in 6.2 mi NW 9.2 mph - N/A   Partly Cloudy
1:00 PM 100.4 °F 98.8 °F 55.4 °F 22% 29.95 in 6.2 mi NW 10.4 mph - N/A   Partly Cloudy
2:00 PM 101 °F - 56 °F 14%  in 6 mi NNW 10.4 mph - -   Partly Cloudy
2:00 PM 100.4 °F 98.8 °F 55.4 °F 22% 29.92 in 6.2 mi NNW 10.4 mph - N/A   Partly Cloudy
3:00 PM 100.4 °F 98.4 °F 53.6 °F 21% 29.89 in 6.2 mi NNW 6.9 mph - N/A   Partly Cloudy
4:00 PM 102.2 °F 100.4 °F 53.6 °F 20% 29.89 in 6.2 mi NNE 8.1 mph - N/A   Partly Cloudy
5:00 PM 100.4 °F 98.4 °F 53.6 °F 21% 29.86 in 6.2 mi NW 5.8 mph - N/A   Partly Cloudy
6:00 PM 100.4 °F 98.4 °F 53.6 °F 21% 29.89 in 6.2 mi NW 4.6 mph - N/A   Partly Cloudy
7:00 PM 96.8 °F 95.1 °F 55.4 °F 25% 29.89 in 6.2 mi North 4.6 mph - N/A   Partly Cloudy
8:00 PM 92 °F - 56 °F 20%  in 6 mi NNE 5.8 mph - -   Scattered Clouds
8:00 PM 93.2 °F 91.3 °F 55.4 °F 28% 29.92 in - NNE 5.8 mph - N/A   Clear
11:00 PM 86.0 °F 84.5 °F 55.4 °F 35% 29.92 in - NNE 3.5 mph - N/A   Clear